Time,TemperatureF,DewpointF,PressureIn,WindDirection,WindDirectionDegrees,WindSpeedMPH,WindSpeedGustMPH,Humidity,HourlyPrecipIn,Conditions,Clouds,dailyrainin,SoftwareType,DateUTC
2013-08-21 00:02:00,75.0,69.0,-100.00,SSW,210,3.0,11.0,81,-99.99,,,-99.99,,2013-08-21 05:02:00,
2013-08-21 00:23:00,73.0,69.0,-100.00,SW,220,6.0,10.0,87,-99.99,,,-99.99,,2013-08-21 05:23:00,
2013-08-21 00:34:00,73.0,69.0,-100.00,SW,220,6.0,10.0,87,-99.99,,,-99.99,,2013-08-21 05:34:00,
2013-08-21 00:43:00,73.0,69.0,-100.00,SW,220,6.0,10.0,87,-99.99,,,-99.99,,2013-08-21 05:43:00,
2013-08-21 00:52:00,73.0,69.0,-100.00,SW,220,6.0,10.0,87,-99.99,,,-99.99,,2013-08-21 05:52:00,
2013-08-21 01:22:00,72.0,69.0,-100.00,South,180,2.0,9.0,88,-99.99,,,-99.99,,2013-08-21 06:22:00,
2013-08-21 01:32:00,72.0,69.0,-100.00,South,180,2.0,9.0,88,-99.99,,,-99.99,,2013-08-21 06:32:00,
2013-08-21 01:42:00,72.0,69.0,-100.00,South,180,2.0,9.0,88,-99.99,,,-99.99,,2013-08-21 06:42:00,
2013-08-21 01:52:00,72.0,69.0,-100.00,South,180,2.0,9.0,88,-99.99,,,-99.99,,2013-08-21 06:52:00,
2013-08-21 02:01:00,72.0,69.0,-100.00,South,180,2.0,9.0,88,-99.99,,,-99.99,,2013-08-21 07:01:00,
2013-08-21 02:02:00,71.0,69.0,-100.00,SW,225,3.0,9.0,91,-99.99,,,-99.99,,2013-08-21 07:02:00,
2013-08-21 02:22:00,71.0,69.0,-100.00,SW,225,3.0,9.0,91,-99.99,,,-99.99,,2013-08-21 07:22:00,
2013-08-21 02:32:00,71.0,69.0,-100.00,SW,225,3.0,9.0,91,-99.99,,,-99.99,,2013-08-21 07:32:00,
2013-08-21 02:42:00,71.0,69.0,-100.00,SW,225,3.0,9.0,91,-99.99,,,-99.99,,2013-08-21 07:42:00,
2013-08-21 02:53:00,71.0,69.0,-100.00,SW,225,3.0,9.0,91,-99.99,,,-99.99,,2013-08-21 07:53:00,
2013-08-21 03:22:00,71.0,69.0,-100.00,SW,215,3.0,11.0,93,-99.99,,,-99.99,,2013-08-21 08:22:00,
2013-08-21 03:32:00,71.0,69.0,-100.00,SW,215,3.0,11.0,93,-99.99,,,-99.99,,2013-08-21 08:32:00,
2013-08-21 03:43:00,71.0,69.0,-100.00,SW,215,3.0,11.0,93,-99.99,,,-99.99,,2013-08-21 08:43:00,
2013-08-21 03:53:00,71.0,69.0,-100.00,SW,215,3.0,11.0,93,-99.99,,,-99.99,,2013-08-21 08:53:00,
2013-08-21 04:01:00,71.0,69.0,-100.00,SW,215,3.0,11.0,93,-99.99,,,-99.99,,2013-08-21 09:01:00,
2013-08-21 04:03:00,70.0,68.0,-100.00,SSW,210,6.0,14.0,93,-99.99,,,-99.99,,2013-08-21 09:03:00,
2013-08-21 04:22:00,70.0,68.0,-100.00,SSW,210,6.0,14.0,93,-99.99,,,-99.99,,2013-08-21 09:22:00,
2013-08-21 04:34:00,70.0,68.0,-100.00,SSW,210,6.0,14.0,93,-99.99,,,-99.99,,2013-08-21 09:34:00,
2013-08-21 04:43:00,70.0,68.0,-100.00,SSW,210,6.0,14.0,93,-99.99,,,-99.99,,2013-08-21 09:43:00,
2013-08-21 04:54:00,70.0,68.0,-100.00,SSW,210,6.0,14.0,93,-99.99,,,-99.99,,2013-08-21 09:54:00,
2013-08-21 05:03:00,70.0,68.0,-100.00,WSW,245,3.0,10.0,93,-99.99,,,-99.99,,2013-08-21 10:03:00,
2013-08-21 05:23:00,70.0,68.0,-100.00,WSW,245,3.0,10.0,93,-99.99,,,-99.99,,2013-08-21 10:23:00,
2013-08-21 05:33:00,70.0,68.0,-100.00,WSW,245,3.0,10.0,93,-99.99,,,-99.99,,2013-08-21 10:33:00,
2013-08-21 05:43:00,70.0,68.0,-100.00,WSW,245,3.0,10.0,93,-99.99,,,-99.99,,2013-08-21 10:43:00,
2013-08-21 05:52:00,70.0,68.0,-100.00,WSW,245,3.0,10.0,93,-99.99,,,-99.99,,2013-08-21 10:52:00,
2013-08-21 06:22:00,69.0,67.0,-100.00,South,185,1.0,7.0,95,-99.99,,,-99.99,,2013-08-21 11:22:00,
2013-08-21 06:33:00,69.0,67.0,-100.00,South,185,1.0,7.0,95,-99.99,,,-99.99,,2013-08-21 11:33:00,
2013-08-21 06:42:00,69.0,67.0,-100.00,South,185,1.0,7.0,95,-99.99,,,-99.99,,2013-08-21 11:42:00,
2013-08-21 06:52:00,69.0,67.0,-100.00,South,185,1.0,7.0,95,-99.99,,,-99.99,,2013-08-21 11:52:00,
2013-08-21 07:01:00,69.0,67.0,-100.00,South,185,1.0,7.0,95,-99.99,,,-99.99,,2013-08-21 12:01:00,
2013-08-21 07:22:00,70.0,68.0,-100.00,West,275,2.0,5.0,95,-99.99,,,-99.99,,2013-08-21 12:22:00,
2013-08-21 07:32:00,70.0,68.0,-100.00,West,275,2.0,5.0,95,-99.99,,,-99.99,,2013-08-21 12:32:00,
2013-08-21 07:42:00,70.0,68.0,-100.00,West,275,2.0,5.0,95,-99.99,,,-99.99,,2013-08-21 12:42:00,
2013-08-21 07:52:00,70.0,68.0,-100.00,West,275,2.0,5.0,95,-99.99,,,-99.99,,2013-08-21 12:52:00,
2013-08-21 08:01:00,72.0,69.0,-100.00,SW,225,3.0,6.0,89,-99.99,,,-99.99,,2013-08-21 13:01:00,
2013-08-21 08:02:00,70.0,68.0,-100.00,West,275,2.0,5.0,95,-99.99,,,-99.99,,2013-08-21 13:02:00,
2013-08-21 08:22:00,72.0,69.0,-100.00,SW,225,3.0,6.0,89,-99.99,,,-99.99,,2013-08-21 13:22:00,
2013-08-21 08:32:00,72.0,69.0,-100.00,SW,225,3.0,6.0,89,-99.99,,,-99.99,,2013-08-21 13:32:00,
2013-08-21 08:42:00,72.0,69.0,-100.00,SW,225,3.0,6.0,89,-99.99,,,-99.99,,2013-08-21 13:42:00,
2013-08-21 08:52:00,72.0,69.0,-100.00,SW,225,3.0,6.0,89,-99.99,,,-99.99,,2013-08-21 13:52:00,
2013-08-21 09:22:00,74.0,69.0,-100.00,SSW,205,2.0,9.0,85,-99.99,,,-99.99,,2013-08-21 14:22:00,
2013-08-21 09:32:00,74.0,69.0,-100.00,SSW,205,2.0,9.0,85,-99.99,,,-99.99,,2013-08-21 14:32:00,
2013-08-21 09:42:00,74.0,69.0,-100.00,SSW,205,2.0,9.0,85,-99.99,,,-99.99,,2013-08-21 14:42:00,
2013-08-21 09:52:00,74.0,69.0,-100.00,SSW,205,2.0,9.0,85,-99.99,,,-99.99,,2013-08-21 14:52:00,
2013-08-21 10:01:00,74.0,69.0,-100.00,SSW,205,2.0,9.0,85,-99.99,,,-99.99,,2013-08-21 15:01:00,
2013-08-21 10:03:00,78.0,70.0,-100.00,WSW,255,4.0,12.0,77,-99.99,,,-99.99,,2013-08-21 15:03:00,
2013-08-21 10:22:00,78.0,70.0,-100.00,WSW,255,4.0,12.0,77,-99.99,,,-99.99,,2013-08-21 15:22:00,
2013-08-21 10:34:00,78.0,70.0,-100.00,WSW,255,4.0,12.0,77,-99.99,,,-99.99,,2013-08-21 15:34:00,
2013-08-21 10:43:00,78.0,70.0,-100.00,WSW,255,4.0,12.0,77,-99.99,,,-99.99,,2013-08-21 15:43:00,
2013-08-21 10:55:00,78.0,70.0,-100.00,WSW,255,4.0,12.0,77,-99.99,,,-99.99,,2013-08-21 15:55:00,
2013-08-21 11:03:00,80.0,70.0,-100.00,SW,220,3.0,17.0,72,-99.99,,,-99.99,,2013-08-21 16:03:00,
2013-08-21 11:24:00,80.0,70.0,-100.00,SW,220,3.0,17.0,72,-99.99,,,-99.99,,2013-08-21 16:24:00,
2013-08-21 11:34:00,80.0,70.0,-100.00,SW,220,3.0,17.0,72,-99.99,,,-99.99,,2013-08-21 16:34:00,
2013-08-21 11:43:00,80.0,70.0,-100.00,SW,220,3.0,17.0,72,-99.99,,,-99.99,,2013-08-21 16:43:00,
2013-08-21 11:53:00,80.0,70.0,-100.00,SW,220,3.0,17.0,72,-99.99,,,-99.99,,2013-08-21 16:53:00,
2013-08-21 12:02:00,83.0,70.0,-100.00,SSW,200,6.0,15.0,66,-99.99,,,-99.99,,2013-08-21 17:02:00,
2013-08-21 12:23:00,83.0,70.0,-100.00,SSW,200,6.0,15.0,66,-99.99,,,-99.99,,2013-08-21 17:23:00,
2013-08-21 12:34:00,83.0,70.0,-100.00,SSW,200,6.0,15.0,66,-99.99,,,-99.99,,2013-08-21 17:34:00,
2013-08-21 12:43:00,83.0,70.0,-100.00,SSW,200,6.0,15.0,66,-99.99,,,-99.99,,2013-08-21 17:43:00,
2013-08-21 12:53:00,83.0,70.0,-100.00,SSW,200,6.0,15.0,66,-99.99,,,-99.99,,2013-08-21 17:53:00,
2013-08-21 13:22:00,87.0,70.0,-100.00,West,260,6.0,12.0,57,-99.99,,,-99.99,,2013-08-21 18:22:00,
2013-08-21 13:32:00,87.0,70.0,-100.00,West,260,6.0,12.0,57,-99.99,,,-99.99,,2013-08-21 18:32:00,
2013-08-21 13:42:00,87.0,70.0,-100.00,West,260,6.0,12.0,57,-99.99,,,-99.99,,2013-08-21 18:42:00,
2013-08-21 13:52:00,87.0,70.0,-100.00,West,260,6.0,12.0,57,-99.99,,,-99.99,,2013-08-21 18:52:00,
2013-08-21 14:01:00,87.0,70.0,-100.00,West,260,6.0,12.0,57,-99.99,,,-99.99,,2013-08-21 19:01:00,
2013-08-21 14:02:00,85.0,70.0,-100.00,WNW,290,5.0,16.0,60,-99.99,,,-99.99,,2013-08-21 19:02:00,
2013-08-21 14:22:00,85.0,70.0,-100.00,WNW,290,5.0,16.0,60,-99.99,,,-99.99,,2013-08-21 19:22:00,
2013-08-21 14:32:00,85.0,70.0,-100.00,WNW,290,5.0,16.0,60,-99.99,,,-99.99,,2013-08-21 19:32:00,
2013-08-21 14:42:00,85.0,70.0,-100.00,WNW,290,5.0,16.0,60,-99.99,,,-99.99,,2013-08-21 19:42:00,
2013-08-21 14:52:00,85.0,70.0,-100.00,WNW,290,5.0,16.0,60,-99.99,,,-99.99,,2013-08-21 19:52:00,
2013-08-21 15:22:00,87.0,70.0,-100.00,West,270,4.0,15.0,57,-99.99,,,-99.99,,2013-08-21 20:22:00,
2013-08-21 15:33:00,87.0,70.0,-100.00,West,270,4.0,15.0,57,-99.99,,,-99.99,,2013-08-21 20:33:00,
2013-08-21 15:42:00,87.0,70.0,-100.00,West,270,4.0,15.0,57,-99.99,,,-99.99,,2013-08-21 20:42:00,
2013-08-21 15:52:00,87.0,70.0,-100.00,West,270,4.0,15.0,57,-99.99,,,-99.99,,2013-08-21 20:52:00,
2013-08-21 16:02:00,87.0,70.0,-100.00,West,270,4.0,15.0,57,-99.99,,,-99.99,,2013-08-21 21:02:00,
2013-08-21 16:22:00,85.0,71.0,-100.00,WSW,250,3.0,8.0,62,-99.99,,,-99.99,,2013-08-21 21:22:00,
2013-08-21 16:34:00,85.0,71.0,-100.00,WSW,250,3.0,8.0,62,-99.99,,,-99.99,,2013-08-21 21:34:00,
2013-08-21 16:44:00,85.0,71.0,-100.00,WSW,250,3.0,8.0,62,-99.99,,,-99.99,,2013-08-21 21:44:00,
2013-08-21 16:55:00,85.0,71.0,-100.00,WSW,250,3.0,8.0,62,-99.99,,,-99.99,,2013-08-21 21:55:00,
2013-08-21 17:02:00,75.0,68.0,-100.00,NNE,20,12.0,27.0,77,-99.99,,,-99.99,,2013-08-21 22:02:00,
2013-08-21 17:24:00,75.0,68.0,-100.00,NNE,20,12.0,27.0,77,-99.99,,,-99.99,,2013-08-21 22:24:00,
2013-08-21 17:34:00,75.0,68.0,-100.00,NNE,20,12.0,27.0,77,-99.99,,,-99.99,,2013-08-21 22:34:00,
2013-08-21 17:44:00,75.0,68.0,-100.00,NNE,20,12.0,27.0,77,-99.99,,,-99.99,,2013-08-21 22:44:00,
2013-08-21 17:53:00,75.0,68.0,-100.00,NNE,20,12.0,27.0,77,-99.99,,,-99.99,,2013-08-21 22:53:00,
2013-08-21 18:02:00,69.0,68.0,-100.00,NNE,15,4.0,7.0,97,-99.99,,,-99.99,,2013-08-21 23:02:00,
2013-08-21 18:22:00,69.0,68.0,-100.00,NNE,15,4.0,7.0,97,-99.99,,,-99.99,,2013-08-21 23:22:00,
2013-08-21 18:34:00,69.0,68.0,-100.00,NNE,15,4.0,7.0,97,-99.99,,,-99.99,,2013-08-21 23:34:00,
2013-08-21 18:43:00,69.0,68.0,-100.00,NNE,15,4.0,7.0,97,-99.99,,,-99.99,,2013-08-21 23:43:00,
2013-08-21 18:53:00,69.0,68.0,-100.00,NNE,15,4.0,7.0,97,-99.99,,,-99.99,,2013-08-21 23:53:00,
2013-08-21 19:22:00,69.0,68.0,-100.00,WSW,255,1.0,3.0,98,-99.99,,,-99.99,,2013-08-22 00:22:00,
2013-08-21 19:32:00,69.0,68.0,-100.00,WSW,255,1.0,3.0,98,-99.99,,,-99.99,,2013-08-22 00:32:00,
2013-08-21 19:42:00,69.0,68.0,-100.00,WSW,255,1.0,3.0,98,-99.99,,,-99.99,,2013-08-22 00:42:00,
2013-08-21 19:52:00,69.0,68.0,-100.00,WSW,255,1.0,3.0,98,-99.99,,,-99.99,,2013-08-22 00:52:00,
2013-08-21 20:02:00,69.0,68.0,-100.00,WSW,255,1.0,3.0,98,-99.99,,,-99.99,,2013-08-22 01:02:00,
2013-08-21 20:03:00,69.0,68.0,-100.00,South,190,0.0,2.0,98,-99.99,,,-99.99,,2013-08-22 01:03:00,
2013-08-21 20:22:00,69.0,68.0,-100.00,South,190,0.0,2.0,98,-99.99,,,-99.99,,2013-08-22 01:22:00,
2013-08-21 20:32:00,69.0,68.0,-100.00,South,190,0.0,2.0,98,-99.99,,,-99.99,,2013-08-22 01:32:00,
2013-08-21 20:42:00,69.0,68.0,-100.00,South,190,0.0,2.0,98,-99.99,,,-99.99,,2013-08-22 01:42:00,
2013-08-21 20:52:00,69.0,68.0,-100.00,South,190,0.0,2.0,98,-99.99,,,-99.99,,2013-08-22 01:52:00,
2013-08-21 21:02:00,67.0,66.0,-100.00,SW,215,0.0,2.0,98,-99.99,,,-99.99,,2013-08-22 02:02:00,
2013-08-21 21:22:00,67.0,66.0,-100.00,SW,215,0.0,2.0,98,-99.99,,,-99.99,,2013-08-22 02:22:00,
2013-08-21 21:32:00,67.0,66.0,-100.00,SW,215,0.0,2.0,98,-99.99,,,-99.99,,2013-08-22 02:32:00,
2013-08-21 21:43:00,67.0,66.0,-100.00,SW,215,0.0,2.0,98,-99.99,,,-99.99,,2013-08-22 02:43:00,
2013-08-21 21:52:00,67.0,66.0,-100.00,SW,215,0.0,2.0,98,-99.99,,,-99.99,,2013-08-22 02:52:00,
2013-08-21 22:02:00,68.0,67.0,-100.00,West,265,0.0,6.0,99,-99.99,,,-99.99,,2013-08-22 03:02:00,
2013-08-21 22:22:00,68.0,67.0,-100.00,West,265,0.0,6.0,99,-99.99,,,-99.99,,2013-08-22 03:22:00,
2013-08-21 22:35:00,68.0,67.0,-100.00,West,265,0.0,6.0,99,-99.99,,,-99.99,,2013-08-22 03:35:00,
2013-08-21 22:45:00,68.0,67.0,-100.00,West,265,0.0,6.0,99,-99.99,,,-99.99,,2013-08-22 03:45:00,
2013-08-21 22:54:00,68.0,67.0,-100.00,West,265,0.0,6.0,99,-99.99,,,-99.99,,2013-08-22 03:54:00,
2013-08-21 23:02:00,67.0,67.0,-100.00,NW,310,0.0,3.0,99,-99.99,,,-99.99,,2013-08-22 04:02:00,
2013-08-21 23:24:00,67.0,67.0,-100.00,NW,310,0.0,3.0,99,-99.99,,,-99.99,,2013-08-22 04:24:00,
2013-08-21 23:34:00,67.0,67.0,-100.00,NW,310,0.0,3.0,99,-99.99,,,-99.99,,2013-08-22 04:34:00,
2013-08-21 23:44:00,67.0,67.0,-100.00,NW,310,0.0,3.0,99,-99.99,,,-99.99,,2013-08-22 04:44:00,
2013-08-21 23:54:00,67.0,67.0,-100.00,NW,310,0.0,3.0,99,-99.99,,,-99.99,,2013-08-22 04:54:00,